�������l�o���
Date,Time,MP-1(��Sv/h),MP-2(��Sv/h),MP-3(��Sv/h),MP-4(��Sv/h),MP-5(��Sv/h),MP-6(��Sv/h),MP-7(��Sv/h),MP-8(��Sv/h),����,����(m/s),���J
2019/01/25,00:00,0.793,1.140,0.823,1.521,1.088,0.451,0.801,0.758,���쐼,1.5,��
2019/01/25,00:10,0.793,1.139,0.826,1.519,1.087,0.450,0.800,0.756,��,1.2,��
2019/01/25,00:20,0.794,1.140,0.826,1.518,1.090,0.450,0.799,0.756,���k��,2.3,��
2019/01/25,00:30,0.793,1.145,0.828,1.519,1.089,0.450,0.798,0.757,���k��,1.9,��
2019/01/25,00:40,0.792,1.147,0.826,1.517,1.086,0.450,0.798,0.756,�k��,2.2,��
2019/01/25,00:50,0.792,1.146,0.827,1.517,1.089,0.451,0.799,0.756,��,1.1,��
2019/01/25,01:00,0.793,1.147,0.827,1.518,1.088,0.451,0.799,0.758,���k��,2.2,��
2019/01/25,01:10,0.793,1.141,0.827,1.519,1.088,0.449,0.800,0.756,���k��,1.2,��
2019/01/25,01:20,0.792,1.141,0.826,1.521,1.089,0.450,0.799,0.755,�k��,1.4,��
2019/01/25,01:30,0.792,1.139,0.825,1.519,1.087,0.450,0.799,0.757,�k��,1.5,��
2019/01/25,01:40,0.792,1.139,0.825,1.517,1.086,0.449,0.800,0.757,���k��,0.9,��
2019/01/25,01:50,0.795,1.180,0.825,1.518,1.087,0.449,0.799,0.757,�k��,2.0,��
2019/01/25,02:00,0.793,1.177,0.826,1.518,1.088,0.449,0.799,0.755,�k��,2.0,��
2019/01/25,02:10,0.793,1.178,0.826,1.518,1.087,0.450,0.799,0.758,�k��,2.0,��
2019/01/25,02:20,0.792,1.176,0.825,1.516,1.087,0.450,0.799,0.758,���k��,1.5,��
2019/01/25,02:30,0.792,1.178,0.826,1.517,1.085,0.451,0.799,0.755,�k��,1.7,��
2019/01/25,02:40,0.793,1.177,0.825,1.517,1.087,0.451,0.799,0.758,�k��,1.5,��
2019/01/25,02:50,0.792,1.177,0.825,1.518,1.086,0.450,0.799,0.756,���k��,1.9,��
2019/01/25,03:00,0.792,1.177,0.825,1.517,1.085,0.449,0.799,0.755,���k��,1.9,��
2019/01/25,03:10,0.792,1.177,0.825,1.518,1.086,0.450,0.799,0.756,�k��,3.5,��
2019/01/25,03:20,0.794,1.176,0.825,1.518,1.085,0.449,0.798,0.757,�k��,4.6,��
2019/01/25,03:30,0.792,1.176,0.826,1.518,1.084,0.450,0.798,0.756,�k��,4.8,��
2019/01/25,03:40,0.793,1.179,0.826,1.517,1.086,0.450,0.799,0.756,�k��,4.5,��
2019/01/25,03:50,0.794,1.177,0.825,1.518,1.086,0.451,0.799,0.757,�k��,4.7,��
2019/01/25,04:00,0.792,1.175,0.824,1.518,1.085,0.449,0.798,0.757,�k��,4.0,��
2019/01/25,04:10,0.793,1.178,0.824,1.518,1.083,0.450,0.800,0.755,�k��,4.8,��
2019/01/25,04:20,0.792,1.176,0.825,1.519,1.084,0.450,0.799,0.754,�k��,4.9,��
2019/01/25,04:30,0.792,1.180,0.825,1.516,1.083,0.451,0.800,0.758,�k��,4.2,��
2019/01/25,04:40,0.793,1.177,0.826,1.517,1.086,0.450,0.800,0.758,���k��,3.5,��
2019/01/25,04:50,0.790,1.175,0.825,1.519,1.082,0.451,0.798,0.756,���k��,3.5,��
2019/01/25,05:00,0.791,1.176,0.825,1.517,1.085,0.449,0.799,0.758,���k��,2.8,��
2019/01/25,05:10,0.791,1.178,0.826,1.515,1.086,0.448,0.799,0.757,���k��,3.7,��
2019/01/25,05:20,0.792,1.177,0.826,1.517,1.087,0.448,0.800,0.757,���k��,4.1,��
2019/01/25,05:30,0.792,1.178,0.824,1.516,1.085,0.449,0.798,0.756,���k��,4.5,��
2019/01/25,05:40,0.794,1.177,0.824,1.517,1.085,0.449,0.797,0.756,��,3.8,��
2019/01/25,05:50,0.791,1.177,0.823,1.516,1.084,0.450,0.799,0.757,���쐼,3.0,��
2019/01/25,06:00,0.792,1.177,0.825,1.517,1.085,0.449,0.800,0.755,��,3.1,��
2019/01/25,06:10,0.789,1.177,0.824,1.519,1.086,0.449,0.799,0.757,���k��,3.1,��
2019/01/25,06:20,0.792,1.175,0.824,1.516,1.084,0.450,0.798,0.757,���k��,2.3,��
2019/01/25,06:30,0.792,1.178,0.825,1.517,1.084,0.449,0.799,0.755,��,2.3,��
2019/01/25,06:40,0.792,1.173,0.826,1.515,1.086,0.448,0.800,0.756,��,2.6,��
2019/01/25,06:50,0.792,1.177,0.825,1.515,1.084,0.449,0.798,0.757,�쐼,2.0,��
2019/01/25,07:00,0.792,1.176,0.826,1.517,1.085,0.449,0.797,0.757,��쐼,2.6,��
2019/01/25,07:10,0.791,1.177,0.824,1.518,1.085,0.450,0.799,0.756,�쐼,2.8,��
2019/01/25,07:20,0.793,1.174,0.825,1.517,1.086,0.448,0.799,0.757,��쐼,2.2,��
2019/01/25,07:30,0.792,1.177,0.825,1.516,1.086,0.449,0.796,0.756,��쐼,1.4,��
2019/01/25,07:40,0.790,1.176,0.825,1.517,1.085,0.448,0.799,0.755,��,1.2,��
2019/01/25,07:50,0.793,1.176,0.825,1.519,1.085,0.448,0.799,0.757,-,CALM,��
2019/01/25,08:00,0.792,1.176,0.827,1.516,1.087,0.448,0.800,0.757,���k��,0.9,��
2019/01/25,08:10,0.792,1.176,0.822,1.517,1.086,0.448,0.800,0.756,-,CALM,��
2019/01/25,08:20,0.793,1.178,0.824,1.517,1.084,0.449,0.800,0.757,�k�k��,0.6,��
2019/01/25,08:30,0.794,1.171,0.823,1.514,1.084,0.447,0.800,0.756,��,0.9,��
2019/01/25,08:40,0.794,1.173,0.825,1.516,1.086,0.447,0.799,0.756,�k��,1.1,��
2019/01/25,08:50,0.795,1.173,0.826,1.517,1.086,0.448,0.800,0.757,���쐼,2.6,��
2019/01/25,09:00,0.795,1.174,0.824,1.520,1.085,0.448,0.801,0.759,���쐼,0.9,��
2019/01/25,09:10,0.793,1.175,0.825,1.516,1.087,0.447,0.799,0.758,��,1.1,��
2019/01/25,09:20,0.794,1.174,0.826,1.517,1.086,0.448,0.802,0.756,�쐼,0.6,��
2019/01/25,09:30,0.794,1.172,0.825,1.518,1.086,0.448,0.802,0.758,�쐼,1.4,��
2019/01/25,09:40,0.795,1.172,0.827,1.519,1.089,0.451,0.803,0.757,�쐼,0.6,��
2019/01/25,09:50,0.793,1.170,0.826,1.518,1.088,0.450,0.799,0.757,���쓌,2.0,��
2019/01/25,10:00,0.793,1.172,0.825,1.516,1.088,0.451,0.799,0.756,�쓌,2.2,��
2019/01/25,10:10,0.795,1.172,0.826,1.518,1.088,0.451,0.800,0.757,��,1.7,��
2019/01/25,10:20,0.793,1.173,0.824,1.517,1.087,0.450,0.799,0.759,��,2.8,��
2019/01/25,10:30,0.795,1.174,0.826,1.518,1.087,0.451,0.799,0.758,��,2.3,��
2019/01/25,10:40,0.795,1.169,0.825,1.518,1.086,0.452,0.800,0.756,���k��,2.6,��
2019/01/25,10:50,0.795,1.172,0.828,1.520,1.086,0.452,0.799,0.758,��,2.9,��
2019/01/25,11:00,0.796,1.169,0.827,1.520,1.087,0.451,0.799,0.756,���쓌,2.0,��
2019/01/25,11:10,0.794,1.173,0.826,1.520,1.088,0.450,0.800,0.757,���쓌,2.2,��
2019/01/25,11:20,0.796,1.172,0.828,1.520,1.088,0.451,0.799,0.756,���쓌,2.3,��
2019/01/25,11:30,0.794,1.172,0.829,1.519,1.089,0.451,0.799,0.760,���쓌,2.0,��
2019/01/25,11:40,0.796,1.173,0.827,1.518,1.091,0.451,0.796,0.758,���쓌,3.0,��
2019/01/25,11:50,0.796,1.178,0.827,1.518,1.091,0.452,0.800,0.757,���쓌,2.6,��
2019/01/25,12:00,0.796,1.182,0.828,1.519,1.090,0.452,0.800,0.758,�쓌,1.4,��
2019/01/25,12:10,0.800,1.180,0.825,1.520,1.090,0.452,0.800,0.756,��,2.9,��
2019/01/25,12:20,0.796,1.182,0.827,1.519,1.092,0.451,0.801,0.757,�쓌,2.9,��
2019/01/25,12:30,0.798,1.179,0.829,1.516,1.090,0.451,0.800,0.757,��,6.9,��
2019/01/25,12:40,0.796,1.177,0.828,1.520,1.093,0.452,0.801,0.757,��,5.1,��
2019/01/25,12:50,0.797,1.175,0.830,1.519,1.092,0.452,0.800,0.757,�k�k��,3.6,��
2019/01/25,13:00,0.797,1.179,0.829,1.520,1.090,0.453,0.801,0.759,�k�k��,3.0,��
2019/01/25,13:10,0.797,1.174,0.828,1.520,1.090,0.452,0.801,0.761,�k��,2.6,��
2019/01/25,13:20,0.796,1.173,0.828,1.520,1.091,0.452,0.800,0.759,���k��,7.5,��
2019/01/25,13:30,0.797,1.172,0.828,1.522,1.089,0.453,0.801,0.758,�k��,7.3,��
2019/01/25,13:40,0.798,1.176,0.829,1.521,1.089,0.452,0.800,0.759,�k��,7.7,��
2019/01/25,13:50,0.797,1.171,0.828,1.517,1.090,0.452,0.800,0.757,�k��,6.5,��
2019/01/25,14:00,0.796,1.172,0.828,1.517,1.091,0.453,0.803,0.758,�k��,4.8,��
2019/01/25,14:10,0.796,1.176,0.827,1.520,1.090,0.451,0.802,0.758,���k��,4.7,��
2019/01/25,14:20,0.797,1.174,0.827,1.521,1.091,0.454,0.800,0.759,���k��,2.3,��
2019/01/25,14:30,0.796,1.175,0.826,1.522,1.090,0.452,0.802,0.758,�k��,3.9,��
2019/01/25,14:40,0.796,1.173,0.828,1.523,1.090,0.453,0.803,0.759,�k�k��,4.8,��
2019/01/25,14:50,0.798,1.178,0.828,1.521,1.093,0.451,0.801,0.760,�k,4.4,��
2019/01/25,15:00,0.797,1.176,0.829,1.521,1.092,0.452,0.803,0.759,�k�k��,3.7,��
2019/01/25,15:10,0.796,1.177,0.827,1.521,1.090,0.453,0.804,0.759,�k��,3.8,��
2019/01/25,15:20,0.798,1.177,0.830,1.522,1.091,0.452,0.801,0.760,�k,3.1,��
2019/01/25,15:30,0.798,1.175,0.830,1.521,1.089,0.451,0.803,0.758,�k�k��,2.6,��
2019/01/25,15:40,0.797,1.179,0.828,1.519,1.089,0.451,0.801,0.760,�k�k��,2.6,��
2019/01/25,15:50,0.798,1.179,0.829,1.521,1.093,0.452,0.804,0.760,�k,2.2,��
2019/01/25,16:00,0.796,1.180,0.827,1.518,1.091,0.452,0.803,0.760,�k�k��,2.3,��
2019/01/25,16:10,0.800,1.178,0.827,1.522,1.091,0.453,0.804,0.760,�k�k��,2.3,��
2019/01/25,16:20,0.798,1.180,0.829,1.519,1.093,0.452,0.803,0.758,�k,2.0,��
2019/01/25,16:30,0.797,1.183,0.828,1.521,1.093,0.451,0.804,0.759,�k�k��,2.0,��
2019/01/25,16:40,0.797,1.180,0.829,1.519,1.090,0.453,0.803,0.759,�k�k��,3.0,��
2019/01/25,16:50,0.795,1.179,0.828,1.521,1.090,0.452,0.802,0.757,�k�k��,3.6,��
2019/01/25,17:00,0.793,1.177,0.828,1.518,1.090,0.451,0.803,0.757,�k�k��,2.2,��
2019/01/25,17:10,0.796,1.155,0.828,1.521,1.090,0.452,0.802,0.758,�k��,2.3,��
2019/01/25,17:20,0.795,1.182,0.828,1.519,1.088,0.453,0.802,0.759,���k��,1.7,��
2019/01/25,17:30,0.796,1.184,0.827,1.518,1.089,0.451,0.801,0.757,���k��,2.0,��
2019/01/25,17:40,0.793,1.184,0.827,1.521,1.089,0.451,0.802,0.758,���k��,2.3,��
2019/01/25,17:50,0.796,1.182,0.826,1.519,1.091,0.452,0.800,0.757,���k��,3.2,��
2019/01/25,18:00,0.795,1.184,0.827,1.521,1.092,0.451,0.802,0.758,��,4.7,��
2019/01/25,18:10,0.795,1.183,0.830,1.521,1.093,0.451,0.802,0.758,���k��,6.7,��
2019/01/25,18:20,0.795,1.184,0.827,1.520,1.090,0.451,0.799,0.757,���k��,6.1,��
2019/01/25,18:30,0.794,1.182,0.829,1.520,1.090,0.449,0.801,0.757,�k��,4.9,��
2019/01/25,18:40,0.793,1.184,0.827,1.518,1.090,0.452,0.802,0.757,���k��,4.3,��
2019/01/25,18:50,0.793,1.183,0.827,1.521,1.090,0.451,0.802,0.757,�k��,4.3,��
2019/01/25,19:00,0.793,1.184,0.827,1.519,1.090,0.449,0.800,0.758,�k��,5.1,��
2019/01/25,19:10,0.797,1.182,0.827,1.518,1.091,0.451,0.802,0.758,�k��,6.5,��
2019/01/25,19:20,0.794,1.181,0.827,1.518,1.085,0.450,0.801,0.758,�k��,7.0,��
2019/01/25,19:30,0.795,1.181,0.828,1.517,1.090,0.451,0.799,0.756,�k��,8.1,��
2019/01/25,19:40,0.794,1.184,0.826,1.521,1.088,0.451,0.801,0.757,�k��,8.3,��
2019/01/25,19:50,0.795,1.180,0.828,1.519,1.089,0.451,0.802,0.758,�k��,7.9,��
2019/01/25,20:00,0.793,1.181,0.828,1.519,1.091,0.450,0.799,0.756,�k��,7.7,��
2019/01/25,20:10,0.793,1.183,0.827,1.519,1.088,0.449,0.803,0.757,�k��,9.2,��
2019/01/25,20:20,0.794,1.179,0.827,1.518,1.090,0.450,0.801,0.757,�k��,9.4,��
2019/01/25,20:30,0.796,1.180,0.825,1.518,1.090,0.447,0.802,0.756,�k��,8.7,��
2019/01/25,20:40,0.794,1.183,0.825,1.518,1.090,0.450,0.802,0.758,�k��,7.9,��
2019/01/25,20:50,0.794,1.179,0.826,1.518,1.091,0.449,0.801,0.757,�k��,5.8,��
2019/01/25,21:00,0.793,1.182,0.826,1.517,1.089,0.450,0.801,0.757,��,1.1,��
2019/01/25,21:10,0.795,1.181,0.827,1.518,1.090,0.450,0.803,0.759,�k�k��,1.2,��
2019/01/25,21:20,0.795,1.182,0.830,1.519,1.090,0.451,0.801,0.756,�k,2.0,��
2019/01/25,21:30,0.793,1.181,0.828,1.520,1.089,0.452,0.802,0.759,�k,1.2,��
2019/01/25,21:40,0.796,1.181,0.828,1.519,1.089,0.451,0.801,0.757,�k�k��,3.0,��
2019/01/25,21:50,0.795,1.182,0.829,1.520,1.090,0.452,0.799,0.757,�k,3.1,��
2019/01/25,22:00,0.797,1.181,0.826,1.519,1.090,0.451,0.801,0.758,�k,3.5,��
2019/01/25,22:10,0.794,1.181,0.828,1.519,1.088,0.451,0.801,0.757,�k,3.1,��
2019/01/25,22:20,0.794,1.181,0.828,1.518,1.090,0.452,0.801,0.757,�k,3.6,��
2019/01/25,22:30,0.795,1.179,0.827,1.517,1.089,0.450,0.799,0.758,�k�k��,3.9,��
2019/01/25,22:40,0.794,1.180,0.827,1.519,1.089,0.451,0.801,0.757,�k�k��,3.6,��
2019/01/25,22:50,0.793,1.183,0.828,1.519,1.089,0.451,0.801,0.758,�k�k��,4.0,��
2019/01/25,23:00,0.794,1.181,0.827,1.518,1.089,0.450,0.801,0.757,�k,4.7,��
2019/01/25,23:10,0.794,1.182,0.827,1.520,1.088,0.451,0.800,0.756,�k,3.9,��
2019/01/25,23:20,0.794,1.181,0.828,1.518,1.089,0.451,0.801,0.757,�k�k��,3.5,��
2019/01/25,23:30,0.793,1.181,0.828,1.519,1.088,0.453,0.801,0.756,�k�k��,3.0,��
2019/01/25,23:40,0.794,1.181,0.827,1.518,1.087,0.451,0.800,0.758,�k�k��,3.2,��
2019/01/25,23:50,0.793,1.184,0.825,1.519,1.090,0.452,0.801,0.758,�k�k��,2.9,��
